www.pogodaiklimat.ru

Погода и климат >> Архив погоды >> Оман >> Диба


ПОГОДА в Дибе

  • Прогноз погоды в Дибе
  • Монитор погоды в Дибе

АРХИВ ПОГОДЫ в Дибе

Время (UTC), дата Ветер
(напр.,м/с)
 
Видим.   Явления Облачность Т
(С)
Тd
(С)
f
(%)
Тe
(С)
Тes
(С)
Комфортность P
(гПа)
Po
(гПа)
Тmin
(С)
Tmax
(С)
R
(мм)
R24
(мм)
S
(см)
09 19.03 ЮЗ 10 н/о н/о +25.1 +10.0 39 +26 +26 жарко 1014.6 1012.1
12 19.03 ЮЗ 10 н/о н/о +25.5 +7.9 33 +26 +26 жарко 1013.0 1010.5
15 19.03 Ю 6 н/о н/о +22.0 +8.3 41 +23 +23 комфорт 1013.5 1011.0
18 19.03 Ю 7 н/о н/о +20.5 +10.2 52 +22 +22 комфорт 1015.1 1012.5 +26.1
21 19.03 Ю 4 н/о н/о +19.4 +10.4 56 +20 +20 1014.0 1011.4
00 20.03 Ю 5 н/о н/о +18.8 +10.7 59 +19 +19 1012.8 1010.3
03 20.03 Ю 6 н/о н/о +18.3 +11.5 65 +18 +18 1014.3 1011.7
06 20.03 Ю 5 н/о н/о +22.0 +12.2 54 +24 +24 комфорт 1015.5 1012.9 +18.0
09 20.03 Ю 7 н/о н/о +26.0 +11.5 40 +27 +27 жарко 1013.4 1010.9
12 20.03 н/о н/о +24.5 +12.2 46 1011.9 1009.4
15 20.03 Ю 3 н/о н/о +23.4 +11.1 46 +26 +26 жарко 1012.7 1010.2
18 20.03 Ю 9 н/о н/о +21.5 +12.9 58 +24 +24 комфорт 1013.4 1010.9 +28.0
21 20.03 Ю 5 н/о н/о +21.0 +11.2 53 +23 +23 комфорт 1013.3 1010.7
00 21.03 Ю 4 н/о н/о +19.7 +12.5 63 +21 +21 комфорт 1012.6 1010.0
03 21.03 Ю 3 н/о н/о +19.0 +13.3 70 +20 +20 1014.2 1011.6
06 21.03 С 1 н/о н/о +24.7 +12.7 47 +27 +27 жарко 1015.7 1013.2 +18.7
09 21.03 С 4 н/о н/о +25.5 +15.2 53 +28 +28 жарко 1015.2 1012.6
12 21.03 СВ 3 н/о н/о +25.1 +15.3 55 +28 +28 жарко 1012.9 1010.4
15 21.03 СВ 1 н/о н/о +23.3 +15.1 60 +27 +27 душно 1014.3 1011.8
18 21.03 СЗ 2 н/о н/о +22.2 +16.0 68 +26 +26 душно 1015.6 1013.0 +25.8
21 21.03 С 2 н/о н/о +21.7 +15.8 69 +25 +25 комфорт 1014.8 1012.2
00 22.03 З 2 н/о н/о +22.1 +17.7 76 +27 +27 душно 1014.1 1011.6
03 22.03 Ю 4 н/о н/о +21.6 +17.7 78 +26 +26 душно 1016.9 1014.3
06 22.03 ЮЗ 5 н/о н/о +26.1 +12.3 42 +28 +28 жарко 1017.8 1015.3 +21.1 1
09 22.03 СЗ 3 н/о н/о +25.5 +15.9 55 +29 +29 душно 1017.6 1015.0
12 22.03 СВ 4 н/о н/о +25.0 +19.0 69 +30 +30 душно 1016.1 1013.6 1
15 22.03 н/о н/о +23.0 +20.4 85 1016.7 1014.2
18 22.03 СЗ 2 н/о н/о +22.5 +20.5 88 +29 +29 очень
душно
1018.4 1015.8 +26.8
21 22.03 С 2 н/о н/о +22.0 +19.8 87 +28 +28 душно 1016.4 1013.9
00 23.03 С 1 н/о н/о +21.1 +19.2 89 +26 +26 душно 1015.3 1012.7 1
03 23.03 н/о н/о +22.0 +18.0 78 1017.1 1014.6
06 23.03 С 1 н/о н/о +23.5 +15.6 61 +27 +27 душно 1019.0 1016.4 +20.6
09 23.03 С 6 н/о н/о +23.7 +14.3 56 +26 +26 жарко 1018.2 1015.7
12 23.03 С 7 н/о н/о +23.7 +14.7 57 +26 +26 жарко 1015.4 1012.8
15 23.03 С 4 н/о н/о +23.3 +14.2 57 +27 +27 душно 1015.8 1013.2
18 23.03 СВ 2 н/о н/о +22.9 +15.8 64 +27 +27 душно 1016.2 1013.7 +24.8
21 23.03 СЗ 1 н/о н/о +20.8 +17.2 80 +26 +26 душно 1014.9 1012.3
00 24.03 СЗ 1 н/о н/о +19.7 +16.9 84 +23 +23 комфорт 1014.4 1011.8
03 24.03 Ю 3 н/о н/о +19.9 +17.9 88 +23 +23 комфорт 1015.5 1012.9
06 24.03 С 3 н/о н/о +23.4 +17.7 70 +29 +29 душно 1015.2 1012.7 +19.1 5
09 24.03 СВ 5 н/о н/о +24.7 +19.6 73 +30 +30 очень
душно
1014.4 1011.9
12 24.03 СВ 4 н/о н/о +23.6 +19.7 79 +29 +29 душно 1013.0 1010.4 5
15 24.03 С 1 н/о н/о +22.5 +19.1 81 +28 +28 душно 1014.1 1011.6
18 24.03 В 1 н/о н/о +22.9 +17.3 71 +28 +28 душно 1015.1 1012.6 +25.2
21 24.03 С 2 н/о н/о +22.7 +16.8 69 +27 +27 душно 1014.9 1012.4
00 25.03 С 2 н/о н/о +22.1 +18.2 79 +27 +27 душно 1014.3 1011.7 5
03 25.03 СВ 2 н/о н/о +23.0 +19.1 79 +29 +29 очень
душно
1015.4 1012.8
06 25.03 С 3 н/о н/о +24.5 +20.5 78 +30 +30 очень
душно
1016.5 1014.0 +21.6
09 25.03 С 2 н/о н/о +25.2 +19.7 72 +31 +31 очень
душно
1016.2 1013.7
12 25.03 С 3 н/о н/о +23.6 +20.4 82 +29 +29 душно 1013.7 1011.2
15 25.03 н/о н/о +23.3 +20.2 83 1014.7 1012.2
18 25.03 н/о н/о +22.5 +20.3 87 1015.0 1012.4 +25.4
21 25.03 С 3 н/о н/о +22.6 +20.6 88 +29 +29 очень
душно
1014.1 1011.5
00 26.03 С 2 н/о н/о +22.5 +20.8 90 +29 +29 очень
душно
1013.0 1010.5
03 26.03 С 2 н/о н/о +22.1 +20.7 92 +28 +28 душно 1015.9 1013.4
06 26.03 СВ 2 н/о н/о +24.8 +20.9 79 +31 +31 очень
душно
1017.0 1014.4 +21.3

 

Местоположение метеостанции Диба (Оман): широта 25.62 долгота 56.25 высота над уровнем моря 20 м.

В архиве по умолчанию представлена погода в Дибе за последнюю неделю. Архивные данные за месяц целиком и за предыдущие месяцы, начиная с января 2011 года, Вы можете получить, выбрав интересующий диапазон дат из раскрывающегося списка и нажав кнопку "Ввод!".


*Определитесь, кто Вы:
робот инопланетянин человек

Внимание! Время в таблицах - всемирное. Для получения местного времени необходимо прибавить поправку, которая равна 4 ч.

Смотрите также архив погоды в соседних городах и на ближайших метеорологических станциях:

Погода в Рай-эль-Хайма аэропорту (ОАЭ) (32 км)
Погода в Фуджейре (ОАЭ) (58 км)
Погода в Эль-Хасаб аэропорту (Оман) (61 км)
Погода в Эль-Хасабе (Оман) (66 км)
Погода в Шардже (ОАЭ) (80 км)
Погода в Дубае (ОАЭ) (101 км)
Погода в Сухаре (Оман) (134 км)
Погода в Аль-Мактум аэропорту (ОАЭ) (136 км)
Погода на Острове Абу-Муса (Иран) (144 км)
Погода в Джаске (Иран) (152 км)

Пояснения к столбцам:

Ветер - указаны скорость ветра в м/с - средняя за 10 мин, порывы в срок и между сроками (в фигурных скобках) и направление, откуда дует ветер: С - северный, СВ - северо-восточный, В - восточный, ЮВ - юго-восточный, Ю - южный, ЮЗ - юго-западный, З - западный, СЗ - северо-западный.
Видимость - горизонтальная дальность видимости в метрах или километрах. При видимости от 1 до 10 км при отсутствии осадков обычно наблюдается дымка, при ухудшении видимости до 1 км и менее - туман. В сухую погоду видимость может ухудшаться дымом, пылью или мглою.
Явления - указаны атмосферные явления, наблюдавшиеся в срок или в последний час перед сроком; фигурными скобками обозначены явления, наблюдавшиеся между сроками (за 1-3 часа до срока); квадратными скобками обозначены град или гололедные отложения с указанием их диаметра в мм.
Облачность - указаны через наклонную черту общая и нижняя облачность в баллах и высота нижней границы облаков в метрах; квадратными скобками обозначены формы облаков: Ci - перистые, Cs - перисто-слоистые, Cc - перисто-кучевые, Ac - высококучевые, As - высокослоистые, Sc - слоисто-кучевые, Ns - слоисто-дождевые, Cu - кучевые, Cb - кучево-дождевые. Подробнее классификацию облаков см. в Атласе облаков (PDF).
T - Температура воздуха - температура, измеренная на высоте 2 м над землей.
Td - Температура точки росы - температура, при понижении до которой содержащийся в воздухе водяной пар достигнет насыщения.
f - Относительная влажность воздуха - влажноcть воздуха, измеренная на высоте 2 м над землей.
Te - Эффективная температура - температура, которую ощущает одетый по сезону человек в тени. Характеристика душности погоды. При расчете учитывается влияние влажности воздуха и скорости ветра на теплоощущения человека.
Tes - Эффективная температура на солнце - температура, которую ощущает человек, с поправкой на солнечный нагрев. Характеристика знойности погоды. Зависит от высоты солнца над горизонтом, облачности и скорости ветра. Ночью, в пасмурную погоду, а также при ветре 12 м/с и более поправка равна нулю.
P - Атмосферное давление - приведенное к уровню моря атмосферное давление.
Po - Атмосферное давление - измеренное на уровне метеостанции атмосферное давление.
Tmin - Минимальная температура - минимум температуры воздуха на высоте 2 м над землей.
Tmax - Максимальная температура - максимум температуры воздуха на высоте 2 м над землей.
R - Количество осадков - Количество выпавших осадков за период времени, мм. При наведении курсора мыши на число - период времени, за который выпало указанное количество осадков.
R24 - Количество осадков - Количество выпавших осадков за 24 часа, мм.
S - Снежный покров - Высота снежного покрова, см. При наведении курсора мыши на число - состояние снежного покрова и степень покрытия местности в баллах.